Theta_e
350 351 351 354 351 354 352 354 360 359 360 343 336 350 351 355 357 358 361 361 362 358 352 349 347 348 353 349 351 353 355 356 355 355 352 354 355 354 356 353 354 353 354 354 353 352 352 354 352 350 348 349 350 349 349 350 350 351 355 355 354 352 349 346 346 348 348 348 347 347 346 346 347 348 349 349 350 351 351 351 351 351 352 352 351 351 351 350 350 351 351 351 351 351 350 350 349
353 353 354 354 353 356 357 360 361 356 354 337 336 351 351 357 357 357 359 360 361 354 350 347 348 350 350 348 349 351 353 353 352 354 353 353 353 354 355 353 354 354 354 354 353 353 353 353 353 352 348 349 352 352 351 351 351 351 354 353 351 349 348 348 347 348 348 347 345 346 346 346 346 347 349 349 350 351 351 351 352 352 352 352 352 352 352 351 350 350 351 352 352 351 351 351 351
353 355 355 355 355 356 358 361 356 348 346 334 338 353 355 358 356 357 357 357 356 351 350 348 350 352 349 349 350 352 353 351 349 350 352 352 353 353 353 353 354 354 355 354 354 353 353 353 353 352 348 349 353 353 351 352 353 353 352 349 347 347 347 347 347 348 349 346 346 346 345 345 345 346 348 348 349 350 351 351 352 352 352 352 351 351 351 351 351 351 351 352 351 350 350 351 352
354 355 356 355 357 357 359 361 354 344 337 331 336 352 357 356 356 356 355 356 354 351 350 349 352 352 351 353 350 353 353 350 350 350 352 352 353 352 352 352 353 354 354 355 355 354 353 352 353 352 348 349 352 351 351 352 353 353 349 346 347 348 348 347 347 349 348 347 346 345 345 345 344 345 346 347 348 349 350 351 352 353 352 351 350 350 351 351 352 352 351 351 351 350 349 350 351
353 355 355 356 360 359 360 358 352 342 333 334 337 350 357 353 356 355 355 355 353 352 350 350 353 352 352 353 352 353 352 349 351 351 351 352 353 352 352 352 353 354 354 355 355 355 354 351 353 352 349 349 350 350 351 352 352 351 347 345 347 347 347 346 347 349 348 347 346 345 346 345 344 345 345 345 347 348 350 351 352 352 352 351 351 351 351 351 351 352 350 350 351 350 350 349 349
353 356 355 356 360 358 359 349 340 337 340 349 344 350 356 352 355 354 357 355 353 353 350 351 352 352 354 353 351 351 350 349 351 351 352 352 352 352 353 353 352 354 355 356 355 356 354 351 352 353 352 350 349 350 351 352 352 349 344 345 346 345 346 346 347 348 347 347 347 347 346 345 345 345 345 345 345 347 349 350 351 351 352 351 351 351 351 351 350 349 348 349 350 350 350 349 348
353 357 356 358 359 358 357 341 334 339 345 354 349 352 354 352 355 354 357 356 356 354 351 352 349 353 355 352 351 350 351 351 350 351 353 352 351 352 353 353 353 353 355 356 356 355 353 352 353 353 354 352 351 352 352 352 352 347 344 345 344 345 346 346 347 347 346 347 347 347 347 346 345 346 346 345 344 345 349 350 350 351 351 351 351 351 350 349 348 347 347 347 349 350 349 348 348
353 357 357 360 362 358 352 337 338 346 345 352 351 352 352 352 354 354 356 356 357 355 354 352 348 355 355 352 353 353 352 351 351 352 352 351 351 352 352 353 353 353 354 356 356 354 351 351 353 353 353 352 352 353 351 350 351 346 343 344 343 346 346 346 346 345 346 346 348 347 348 347 345 347 346 345 343 344 347 349 349 349 350 350 350 350 349 348 347 346 346 346 347 349 350 349 348
353 357 359 359 360 351 343 337 341 348 350 352 351 352 352 352 353 354 355 354 355 354 354 352 349 355 355 354 355 352 352 352 352 352 352 351 351 353 352 353 353 353 354 355 355 353 350 350 352 351 352 352 352 352 350 349 350 346 344 343 343 346 345 345 345 345 346 346 347 347 348 347 346 346 346 345 343 342 345 346 347 348 349 349 350 351 349 348 347 347 347 347 347 348 348 349 348
353 357 361 360 355 340 330 333 340 346 351 350 350 352 352 352 352 354 354 354 354 353 354 351 352 355 354 355 354 352 352 352 352 352 352 351 351 352 353 352 353 353 353 355 354 353 351 349 350 350 351 351 351 352 351 350 349 347 345 343 343 345 344 344 345 346 346 346 347 347 348 347 345 345 345 345 342 341 341 345 347 348 348 349 350 350 349 348 348 347 347 347 347 348 349 349 349
356 355 358 356 344 329 323 330 338 345 350 349 351 351 351 352 352 353 353 354 353 354 353 352 354 354 353 354 354 353 352 352 352 352 352 351 351 352 352 352 353 353 353 355 354 353 351 350 350 350 350 349 350 352 351 349 349 347 343 342 343 343 343 343 345 347 346 346 346 347 347 346 345 345 345 344 342 340 338 342 347 348 349 349 349 349 349 349 349 349 348 347 346 347 349 350 349
357 357 358 351 340 332 331 332 335 345 350 349 351 350 351 350 352 353 353 353 353 355 352 353 354 352 353 353 353 352 352 352 351 352 352 352 352 353 353 352 353 353 353 354 355 354 353 351 350 350 351 350 350 350 350 349 347 345 342 342 343 342 342 343 344 346 345 345 345 345 346 345 345 344 345 344 342 339 337 343 348 348 349 349 349 349 349 350 350 349 347 347 345 345 348 351 351
356 359 356 350 345 343 340 334 338 345 346 349 351 350 351 350 353 352 352 353 352 355 352 352 351 351 354 352 352 351 350 351 351 351 352 352 352 353 353 353 353 353 354 355 356 355 353 351 350 350 348 348 348 348 348 347 343 342 342 342 342 341 342 342 342 343 344 344 344 344 345 345 344 344 345 343 342 342 340 346 350 350 350 349 348 350 351 351 350 348 346 346 346 346 348 351 351
355 357 355 354 352 350 343 336 339 338 338 348 350 349 351 351 353 351 352 353 353 353 352 351 349 352 354 353 352 349 349 351 352 351 352 353 353 353 353 353 353 353 354 355 356 355 354 352 351 350 347 348 349 348 348 345 343 342 341 342 341 342 343 342 342 342 343 344 343 344 344 345 344 344 345 343 344 343 339 343 348 351 351 349 350 351 351 350 350 349 347 346 346 347 349 350 350
354 355 356 355 349 345 342 338 340 335 337 348 349 350 351 350 352 351 352 353 354 351 350 352 350 353 353 353 353 348 349 351 352 352 352 353 353 353 353 354 353 353 353 353 353 355 356 354 352 351 349 351 350 351 350 347 344 343 341 342 342 342 343 342 342 342 343 344 344 343 344 345 344 344 343 344 345 343 343 345 345 348 351 350 351 352 351 350 351 350 348 347 346 347 348 349 348
353 355 358 354 343 338 339 341 342 338 339 348 348 349 350 351 351 352 352 352 354 350 349 352 350 352 350 351 352 349 349 351 352 352 352 353 353 353 353 353 353 352 353 352 353 355 355 355 354 352 352 352 351 352 352 350 347 344 343 342 343 343 342 343 342 343 343 344 344 343 343 346 347 345 345 347 347 345 346 346 345 346 349 350 351 350 351 350 351 351 349 347 345 345 347 347 346
350 355 359 348 340 337 339 344 342 338 342 349 349 349 350 351 352 352 352 351 352 350 349 351 349 350 350 350 351 350 350 351 352 352 352 353 353 353 352 353 353 352 352 352 354 356 355 355 356 355 355 354 352 352 353 353 349 346 346 344 344 344 343 343 342 343 344 345 345 343 345 350 352 350 350 351 351 349 345 342 342 343 345 350 351 350 351 352 352 352 350 347 346 345 347 349 349
351 357 355 343 342 343 343 347 344 343 346 347 349 349 349 352 354 353 352 352 353 351 350 350 350 350 351 353 352 351 351 350 352 352 353 353 353 353 352 352 353 352 352 352 353 355 356 356 357 357 357 356 354 354 354 355 351 349 350 348 347 347 345 344 346 349 350 351 349 347 350 353 353 352 353 354 354 354 348 341 341 341 345 351 351 349 350 351 351 351 349 346 345 345 348 353 353
353 357 352 345 348 347 346 348 345 347 347 345 347 348 349 351 353 353 353 355 353 353 353 352 351 352 352 353 352 352 351 350 352 352 353 353 352 352 352 352 352 353 353 352 353 354 355 356 357 357 358 357 356 355 354 355 353 352 354 352 351 351 349 349 352 354 354 355 353 352 354 352 352 352 351 351 350 351 347 340 340 343 347 350 350 350 350 348 348 348 347 347 347 347 351 354 353
353 354 353 350 350 348 347 347 347 347 345 344 344 346 349 350 352 353 351 354 355 354 354 353 354 354 352 351 352 352 351 351 351 352 352 352 352 352 351 352 351 352 353 353 353 353 354 355 356 357 358 357 357 356 354 354 355 354 354 354 353 354 353 353 355 355 355 356 355 354 353 352 352 352 349 346 347 350 349 345 346 349 351 352 351 354 354 350 350 351 350 350 351 351 353 353 352
353 353 353 351 351 349 348 348 347 347 343 343 342 345 349 349 352 352 350 353 354 353 353 353 355 354 352 350 351 353 352 351 351 351 351 352 352 351 351 351 350 352 353 353 353 353 354 354 354 355 358 358 356 356 354 354 355 354 354 354 353 354 354 355 355 355 356 355 354 353 352 352 351 352 351 349 351 353 353 352 353 354 355 355 352 354 355 353 354 354 353 352 353 352 353 353 353
352 354 352 351 351 350 350 348 348 346 344 343 343 345 347 348 351 350 351 352 349 348 350 351 352 352 352 351 351 352 351 350 351 350 350 351 351 351 351 351 350 351 353 352 353 353 354 354 354 354 356 357 356 355 354 353 354 354 354 354 353 353 354 354 355 355 355 354 353 353 352 352 351 351 352 351 353 353 352 353 354 354 355 355 354 354 355 354 354 353 353 352 352 352 353 354 353
350 351 350 350 351 352 352 350 350 348 346 344 343 344 345 347 349 349 351 350 347 347 348 349 351 353 353 352 351 350 349 348 350 350 349 350 350 351 351 350 350 350 352 352 353 353 354 354 354 354 355 355 356 355 354 353 353 354 354 354 353 353 353 354 355 354 354 354 353 352 352 352 351 351 352 352 352 352 352 352 354 354 354 355 355 355 355 355 355 354 354 353 353 352 353 353 353
348 347 347 349 350 352 351 351 350 348 347 345 343 343 343 346 347 347 349 349 347 349 350 349 352 355 354 352 350 348 349 350 350 351 350 350 350 350 350 349 349 350 351 351 353 354 354 355 355 354 355 355 355 355 355 354 353 354 354 354 354 353 353 354 354 354 354 354 353 352 352 352 352 351 352 352 352 352 352 352 353 354 354 355 354 354 355 355 355 355 354 353 353 353 352 353 352
350 346 345 348 349 349 348 348 347 346 345 343 343 343 342 344 345 346 347 347 348 350 351 351 353 353 352 350 350 350 350 351 352 352 351 350 350 350 349 349 349 350 351 351 352 353 354 354 354 355 355 355 355 355 355 354 354 354 354 355 354 353 354 353 353 354 353 354 353 352 352 353 352 352 352 352 352 353 352 353 354 354 354 355 354 354 354 354 355 356 354 353 354 354 352 352 352
350 347 345 347 347 347 346 345 344 343 342 342 343 342 341 341 343 345 346 347 348 351 352 353 354 352 352 351 350 351 350 351 352 352 351 350 350 349 349 348 349 349 350 350 351 352 353 354 355 355 354 355 354 355 355 354 354 354 354 354 354 354 354 354 354 354 353 353 353 353 353 353 353 353 352 352 353 354 353 354 354 354 355 355 354 354 354 354 355 355 354 353 353 354 353 353 353
345 347 345 346 346 344 343 341 341 340 340 341 341 341 339 338 341 344 344 347 349 352 354 354 354 353 353 351 350 352 351 351 353 352 352 350 350 349 349 349 348 349 349 350 350 350 352 353 354 354 354 355 355 355 354 354 355 354 355 354 354 355 354 354 354 353 353 353 353 354 353 353 354 353 353 353 353 354 354 354 355 355 355 355 355 355 355 355 354 354 354 353 353 353 353 354 353
340 342 342 342 341 341 340 339 338 337 337 338 338 339 338 335 340 342 342 348 351 353 355 354 355 354 353 352 352 353 352 353 354 352 353 352 351 350 349 349 349 349 349 349 350 350 351 352 353 354 354 355 355 355 355 355 355 354 354 354 354 354 354 354 354 353 353 353 354 354 353 353 354 354 354 354 354 354 353 354 355 355 355 355 356 356 356 355 354 354 355 355 354 353 353 354 352
337 338 337 336 336 336 335 335 336 336 336 336 335 334 334 338 341 342 343 350 353 352 356 355 355 355 354 353 352 352 354 354 355 353 353 352 351 351 350 350 350 350 351 350 351 350 350 351 352 354 354 354 355 355 355 354 354 354 354 354 354 354 354 354 354 353 353 354 354 354 354 354 354 354 354 354 353 353 353 354 355 355 356 356 357 357 356 356 354 354 355 355 354 353 353 353 350
335 335 333 333 331 331 334 334 334 336 335 335 334 325 328 340 342 341 346 351 353 353 356 356 354 355 353 354 353 353 354 353 355 354 353 353 352 353 352 352 351 351 352 351 352 351 351 351 351 353 353 354 355 354 354 354 354 354 354 354 353 354 354 354 354 353 353 354 354 354 353 354 354 354 354 353 353 353 354 356 356 356 356 357 357 358 357 355 355 354 354 354 354 353 353 351 347
334 332 330 330 323 325 335 334 332 336 333 334 333 322 326 338 341 341 347 351 352 353 355 355 354 356 354 354 354 354 354 354 355 354 354 354 353 353 353 353 353 352 354 353 353 352 352 351 350 351 353 354 354 354 354 354 353 353 353 353 353 354 354 353 353 353 353 353 354 354 354 354 354 353 353 353 354 353 353 355 356 356 358 357 357 358 357 355 354 354 354 354 354 353 351 348 345
333 325 322 327 321 324 336 332 331 335 332 333 333 324 328 337 340 343 348 349 350 352 354 355 354 356 354 355 354 353 354 355 355 354 354 355 354 354 354 354 353 353 354 354 354 354 353 353 351 351 352 353 354 354 354 354 353 353 352 352 352 353 352 353 353 352 353 353 354 355 355 354 353 351 351 353 354 354 353 354 355 358 359 358 357 358 357 355 355 355 355 355 354 354 350 346 345
330 325 317 321 322 323 331 332 332 333 332 335 333 328 332 336 340 345 348 347 349 351 353 356 355 356 356 355 355 354 354 354 355 355 355 354 355 355 355 355 354 354 355 355 355 354 355 354 353 352 351 352 353 354 354 353 353 352 352 351 352 352 351 352 352 352 353 353 354 355 355 354 352 351 351 352 353 353 354 354 356 359 359 358 359 359 357 356 356 355 356 355 354 355 349 344 345
322 324 320 322 325 323 324 329 332 331 332 334 334 333 334 335 339 345 346 346 348 350 352 355 355 357 357 356 355 355 355 354 354 355 356 355 355 355 355 356 355 355 356 356 356 355 356 355 354 353 352 352 352 352 353 352 352 352 352 352 351 352 351 351 352 353 353 354 355 354 355 356 353 352 352 352 353 353 354 354 356 359 360 360 360 358 357 357 357 355 356 356 355 353 348 344 344
316 318 317 319 325 325 325 328 330 331 332 332 333 334 335 335 337 344 346 345 347 349 351 354 356 357 358 357 355 356 356 355 355 356 356 356 356 355 356 356 356 356 357 356 357 356 356 355 354 354 354 353 352 352 353 352 352 352 352 351 351 352 351 352 352 353 354 353 353 354 356 356 355 354 353 353 353 354 355 355 357 360 359 360 360 358 358 357 358 357 356 356 355 351 347 345 344
321 320 320 318 320 323 329 332 331 331 331 331 333 332 334 335 334 343 346 345 347 348 350 354 356 357 357 358 356 357 357 356 357 357 357 356 356 356 356 357 356 356 357 357 358 358 357 356 355 355 354 353 352 353 353 352 351 351 351 351 351 352 351 353 353 354 354 353 352 354 356 356 354 354 354 354 355 355 356 357 360 361 359 360 360 359 358 358 360 360 357 356 355 350 347 346 344
324 322 321 321 320 322 331 336 331 330 329 330 335 333 333 334 332 339 343 346 348 348 351 355 356 357 357 357 356 357 358 356 358 358 357 357 356 356 357 357 357 356 356 357 358 358 358 357 356 355 355 354 353 352 352 352 351 351 351 351 352 352 352 353 354 355 354 353 353 355 357 356 354 354 354 355 356 358 358 359 362 362 360 360 360 360 359 360 361 358 357 356 353 349 347 346 344
324 322 319 319 319 322 331 335 331 330 328 328 334 333 332 334 333 334 340 345 347 347 350 354 356 357 357 358 357 357 357 356 357 357 357 357 356 357 357 357 358 357 357 357 358 358 358 358 357 357 356 355 354 353 353 353 353 353 353 353 353 353 354 354 355 355 354 353 355 357 357 355 354 355 355 355 357 360 361 361 362 362 361 361 361 361 361 362 360 358 357 356 352 349 347 345 344
323 322 319 316 320 323 327 333 332 331 329 329 334 332 331 335 334 332 337 344 347 345 347 352 355 357 358 358 357 358 359 357 356 356 357 358 357 357 357 358 358 358 358 357 358 359 359 359 358 358 356 355 355 354 355 355 355 355 354 354 354 353 355 355 354 355 354 354 356 358 355 353 354 355 356 357 358 360 362 362 361 362 363 362 362 362 362 362 360 359 357 354 351 349 347 345 344
322 320 315 314 321 321 319 326 332 332 330 330 332 330 330 333 334 333 334 341 347 344 345 348 352 356 357 357 357 358 359 359 358 356 356 357 358 358 358 359 358 357 358 357 357 358 359 359 358 358 357 356 356 356 356 357 357 357 356 355 355 355 355 356 355 355 357 356 357 358 356 353 354 356 357 358 358 360 361 362 360 361 364 362 361 362 363 362 361 359 356 353 351 348 345 345 345
320 320 316 315 321 321 320 326 331 330 329 331 329 322 324 331 334 334 332 339 345 345 346 348 350 354 355 355 357 358 358 360 359 357 356 356 358 359 359 359 358 357 358 358 357 357 358 358 358 358 358 358 358 358 358 358 358 357 357 357 357 356 357 358 358 357 358 357 356 358 358 356 355 356 357 358 359 359 361 361 360 361 363 362 360 360 361 361 360 357 354 353 352 348 343 344 345
316 321 321 319 322 323 323 327 326 321 320 328 328 315 317 328 333 334 335 340 345 346 349 350 351 353 354 356 357 356 357 358 359 358 357 357 359 360 360 360 359 359 359 358 358 358 358 357 358 359 359 359 359 359 359 359 358 358 358 357 356 357 358 358 358 358 357 357 354 355 358 358 357 357 358 359 359 359 360 361 360 360 361 361 360 359 359 361 360 356 354 353 351 349 345 343 343
312 319 323 323 324 322 322 324 320 314 315 327 330 318 315 322 329 335 338 344 347 348 351 352 353 355 355 356 357 356 357 357 358 358 356 357 359 360 361 361 360 359 358 359 358 358 358 358 359 359 359 359 359 359 359 359 359 359 357 356 356 357 358 358 358 358 357 356 355 355 357 359 358 357 358 359 359 359 359 360 361 360 359 359 360 359 358 359 358 356 354 354 351 350 347 345 343
313 321 324 323 323 321 322 322 317 315 318 324 328 323 316 315 324 336 339 342 347 350 352 353 353 356 355 355 355 356 356 356 358 359 357 358 359 361 361 361 360 358 358 359 358 358 359 360 359 359 359 360 360 360 358 358 358 358 357 357 357 357 358 358 359 359 357 357 358 357 357 360 360 359 357 358 359 359 359 360 360 360 359 358 359 359 358 359 358 356 355 354 352 350 348 345 344
318 323 324 324 324 323 323 320 316 317 317 315 319 322 318 314 322 335 337 336 340 348 352 353 353 354 356 355 354 355 356 356 356 358 358 357 359 361 361 361 360 359 359 359 359 360 360 361 361 360 360 360 361 361 359 358 358 358 359 359 358 358 358 359 360 360 358 359 361 360 358 360 362 361 359 358 360 360 359 360 360 359 359 358 358 358 357 358 358 357 356 355 353 351 349 346 344
322 323 324 325 324 323 323 320 315 315 314 311 314 318 316 314 318 327 331 330 335 342 345 349 353 353 355 355 354 355 355 356 356 356 357 358 360 361 360 361 361 359 359 359 360 361 361 363 362 361 362 361 362 361 359 358 359 359 359 359 359 359 359 358 360 361 360 361 361 361 360 360 361 362 360 359 361 361 360 360 359 359 359 358 358 357 357 358 357 357 357 356 354 351 349 347 344
323 323 324 322 323 323 322 320 315 313 312 312 314 316 316 314 315 322 328 330 335 338 337 342 349 353 354 354 353 353 355 356 356 355 356 358 360 361 360 361 361 360 360 360 361 362 362 363 363 363 363 362 362 360 358 358 359 359 360 360 360 361 360 359 360 361 362 362 362 361 360 361 360 361 361 360 361 361 360 361 359 359 359 358 358 358 357 357 357 357 356 356 355 352 350 348 345
323 323 321 316 316 318 316 316 315 312 311 312 314 317 315 311 314 323 330 333 335 337 336 336 343 351 354 353 352 352 353 356 356 356 356 358 359 360 360 361 362 362 361 361 362 362 363 364 364 364 364 363 362 360 359 359 359 360 360 361 361 362 361 360 360 361 362 363 362 360 360 361 361 360 360 360 361 361 361 362 361 359 359 359 359 358 358 357 357 357 356 356 355 352 350 348 345
323 322 317 312 312 314 314 312 312 312 311 312 315 315 312 311 317 326 331 332 332 335 336 334 338 348 353 354 352 352 353 354 355 357 356 358 358 358 361 362 362 363 362 362 362 362 363 364 365 365 364 364 362 360 360 359 360 360 361 361 362 363 362 361 361 360 361 362 362 361 360 361 361 361 361 361 361 361 362 363 363 361 361 360 359 359 358 358 357 357 356 357 356 353 351 349 346
321 318 313 311 312 315 315 313 312 312 311 312 315 315 311 311 319 328 329 329 331 333 334 335 334 340 350 354 352 351 352 353 355 357 356 357 358 359 361 362 362 363 363 362 362 362 363 364 365 366 365 364 363 361 361 359 360 360 360 361 363 363 362 362 361 360 360 361 361 361 360 360 361 361 361 361 360 361 362 364 364 363 362 361 360 359 358 358 358 358 357 357 356 354 352 350 347
321 322 318 313 312 314 315 313 311 311 310 311 314 314 310 310 319 329 328 328 330 331 331 333 333 335 342 350 352 349 351 353 354 356 356 357 359 359 361 362 362 363 363 363 362 362 363 364 365 366 366 366 364 362 361 360 361 361 361 361 362 363 363 362 361 360 360 361 361 361 360 360 361 361 361 361 361 361 362 364 364 363 363 362 360 358 357 358 358 358 357 357 356 354 352 351 348
322 323 319 314 315 316 313 312 311 310 310 311 312 312 314 317 325 331 328 328 329 330 330 330 331 332 336 344 349 348 349 352 353 355 356 357 359 361 362 361 362 363 362 362 362 362 363 364 364 365 366 366 364 363 361 361 361 361 361 362 362 363 363 362 362 361 360 360 361 362 361 361 361 361 362 362 363 362 363 365 365 363 363 363 361 359 358 357 358 358 358 357 357 355 353 351 349
321 319 315 317 323 320 312 311 313 312 311 312 311 312 315 319 323 327 327 328 328 329 329 329 332 334 336 342 347 348 348 350 353 355 357 357 358 360 362 361 361 361 362 362 362 363 363 363 364 365 365 366 365 364 362 361 361 362 362 362 362 362 362 362 362 361 360 361 362 362 361 361 361 361 362 363 363 364 363 364 364 364 364 363 362 360 359 357 358 358 358 358 357 355 354 353 350
320 315 316 321 323 321 316 312 312 312 311 311 309 310 312 311 315 324 327 326 326 328 328 328 331 333 336 341 346 349 349 350 353 355 357 357 357 359 361 361 360 361 361 361 362 363 363 363 363 365 365 366 365 364 363 361 362 362 363 363 363 362 362 363 362 361 361 361 361 362 361 361 361 361 362 362 363 364 364 364 364 364 364 363 362 361 359 358 358 358 358 358 358 356 355 354 351
322 319 322 321 315 314 315 313 313 312 311 311 309 309 310 309 313 322 328 327 326 328 328 328 329 331 335 339 344 347 348 349 352 354 356 357 357 358 361 361 359 360 361 362 362 362 362 362 362 364 365 365 365 364 364 362 362 363 363 363 363 363 363 363 362 362 362 361 361 362 361 361 361 361 362 362 363 363 364 364 363 363 363 364 363 361 360 359 358 358 359 358 357 357 355 355 353
324 323 324 322 317 315 315 315 313 312 312 312 310 309 310 314 320 323 327 330 330 329 329 330 329 329 332 337 340 344 347 349 351 353 355 356 355 357 360 360 359 360 360 361 361 360 360 361 361 363 364 364 365 364 364 364 363 363 364 363 364 364 364 364 363 362 362 362 361 362 362 361 361 361 362 362 362 362 363 364 363 362 362 363 363 361 361 360 358 358 359 358 357 357 356 355 354
320 318 318 318 319 319 318 316 313 312 312 312 312 310 310 318 327 327 327 331 330 330 331 331 331 329 331 335 338 341 347 350 351 352 353 354 355 355 358 359 358 358 359 359 360 359 359 360 361 362 363 363 363 364 364 364 364 364 364 364 365 365 364 363 363 362 362 362 362 361 361 361 361 362 362 362 363 362 362 362 363 363 362 363 363 362 362 360 359 358 359 359 358 357 357 357 355
322 319 317 317 318 316 315 315 315 312 311 311 312 310 311 321 329 327 327 328 328 329 330 330 333 332 331 334 337 342 348 350 351 351 352 353 354 354 356 358 357 357 358 358 358 358 358 359 360 360 361 362 362 363 364 364 364 363 364 364 364 364 364 363 363 363 363 362 362 362 362 362 362 362 362 362 363 363 362 362 363 363 363 363 363 363 362 361 359 359 360 360 359 359 358 357 356
Wind_Speed
11 11 12 10 10 9 9 6 2 2 4 1 3 4 5 4 3 3 7 6 5 6 3 7 10 6 2 5 9 7 8 6 5 3 5 9 19 20 17 22 22 20 21 19 20 22 21 21 22 23 23 23 23 22 22 21 20 21 20 18 18 18 17 17 18 18 17 17 17 16 16 16 16 16 15 15 15 15 14 14 14 13 13 12 13 12 12 11 11 11 11 11 11 10 10 10 9
12 12 12 10 11 8 3 3 2 2 3 1 5 5 5 5 4 4 6 5 6 7 6 9 9 6 4 7 8 7 9 10 9 8 10 19 22 19 21 23 22 22 21 20 21 22 21 21 22 21 23 23 22 21 22 20 19 20 19 17 17 18 17 17 18 17 17 17 17 16 16 16 16 16 15 15 15 14 14 14 13 12 12 12 12 12 12 12 11 11 11 10 10 10 10 9 9
12 10 11 9 8 7 2 4 3 1 2 3 7 5 4 4 6 7 6 6 8 9 9 10 9 6 5 8 5 5 7 8 12 12 12 21 18 18 25 23 22 22 21 21 20 21 21 22 22 22 23 23 21 21 22 21 19 19 18 17 17 18 17 17 18 17 17 17 16 16 16 15 16 16 15 15 14 14 13 13 12 12 12 12 12 12 12 12 12 11 11 10 10 10 10 9 9
10 8 9 6 5 5 4 4 3 2 2 5 6 6 5 6 9 9 7 8 10 9 9 10 8 4 2 7 5 6 9 9 14 13 12 16 16 22 26 23 22 21 20 19 19 20 21 23 23 22 23 22 21 22 22 21 20 18 17 17 17 17 16 17 17 17 16 16 16 15 15 15 15 15 15 14 14 13 12 12 12 11 12 12 12 12 12 12 12 11 11 11 10 10 10 9 9
9 7 8 6 3 2 4 3 3 3 4 5 6 7 6 8 9 9 9 9 10 9 9 8 6 5 6 8 4 4 9 10 14 15 14 16 19 24 24 23 22 20 19 18 18 18 20 24 23 21 22 22 22 22 21 20 20 18 18 18 18 17 16 17 17 16 16 15 15 14 14 14 14 14 14 14 13 12 12 12 11 11 12 12 11 11 11 12 12 12 12 11 11 10 10 9 9
8 7 7 7 4 2 4 2 1 3 6 5 6 7 7 8 8 11 10 10 9 7 8 6 6 7 7 8 6 6 7 9 13 14 16 20 23 24 23 23 21 21 20 18 18 17 21 24 22 21 21 21 22 21 21 20 19 18 18 18 18 17 16 17 16 16 15 15 14 14 13 13 13 13 13 13 12 12 11 11 11 11 11 11 11 11 11 12 11 11 12 12 11 11 10 10 10
8 6 5 6 4 2 4 1 2 5 5 4 6 7 7 9 8 11 11 10 8 7 6 5 7 7 7 6 7 8 6 10 13 14 18 23 25 24 22 21 20 21 20 19 18 18 23 24 23 22 21 22 22 21 20 20 19 19 19 18 18 17 16 17 16 16 15 14 14 13 13 13 12 12 12 12 11 11 11 11 11 11 11 11 11 11 11 11 11 11 11 11 11 11 10 10 9
7 5 3 4 3 4 4 2 3 4 5 3 5 7 8 9 9 10 10 9 8 8 7 8 9 5 7 5 5 8 8 12 14 18 22 25 26 23 21 20 20 20 19 19 18 21 24 23 22 22 22 23 22 21 20 20 19 19 19 18 18 17 17 17 16 15 15 14 13 13 12 12 12 11 11 11 11 10 10 10 10 11 11 11 11 11 10 10 10 10 10 10 11 10 10 9 9
7 5 4 3 4 3 2 2 4 4 5 4 5 6 7 8 8 9 8 7 8 8 9 10 8 4 8 6 7 8 8 13 18 22 24 26 26 23 20 20 20 20 20 19 19 21 23 23 22 22 22 23 22 21 20 20 19 19 19 18 18 17 17 16 16 15 14 13 13 12 11 11 11 10 11 10 10 10 9 10 10 10 10 10 10 10 9 9 10 10 10 10 10 10 9 9 9
5 4 4 3 4 2 2 3 4 4 5 4 5 7 7 7 7 7 7 7 8 9 10 9 6 5 9 9 8 7 10 16 20 23 24 25 26 22 20 20 20 21 21 20 20 21 22 23 23 22 22 23 23 21 20 20 19 19 19 19 18 17 16 16 15 14 13 13 12 11 11 11 11 10 10 9 9 9 8 9 9 9 9 9 9 9 9 9 9 9 9 9 9 9 9 9 9
3 3 3 4 4 1 3 4 4 5 6 4 6 7 6 7 6 6 6 8 8 9 10 8 7 8 10 9 6 7 15 19 21 24 25 25 24 22 21 20 20 21 20 21 21 21 22 23 22 23 23 23 22 20 20 20 20 19 19 19 17 17 16 15 14 13 13 12 11 11 10 10 10 9 9 8 8 8 8 8 8 8 8 9 8 8 9 9 9 9 9 9 9 8 9 9 9
4 2 3 5 2 3 3 3 5 6 6 5 7 6 5 6 6 6 6 8 9 8 10 8 7 9 9 8 5 10 18 20 22 25 26 25 23 21 21 20 21 21 20 21 21 21 22 22 22 23 22 22 21 20 20 19 19 19 19 19 17 17 16 15 14 13 12 11 11 10 9 9 9 8 8 8 7 7 7 7 7 7 8 8 8 8 8 8 8 8 8 8 8 8 8 8 8
4 3 4 4 2 2 1 2 5 5 6 5 7 6 5 6 5 6 6 7 8 7 9 7 8 9 7 8 8 12 17 21 24 25 26 24 22 21 20 20 21 21 21 21 21 22 22 22 22 22 22 22 21 20 19 19 19 19 19 19 18 17 15 14 13 12 12 11 10 9 9 8 8 7 7 7 6 6 6 6 6 6 7 7 7 8 8 8 8 7 7 7 7 7 7 7 7
3 3 4 4 3 2 1 2 4 4 6 7 7 7 5 4 4 5 5 8 7 5 8 8 8 8 8 9 8 10 16 23 25 25 25 22 21 21 20 21 21 21 21 21 22 22 22 21 21 22 23 22 21 20 19 19 18 19 19 18 17 16 15 14 13 12 11 10 9 8 8 7 7 7 6 6 5 6 6 5 5 6 6 6 7 7 7 7 7 7 6 6 6 6 6 6 6
3 2 4 5 3 3 1 1 2 3 6 7 7 6 5 4 4 4 3 5 7 7 9 8 7 4 8 10 9 13 20 27 26 25 24 22 22 20 20 21 21 22 20 21 23 22 20 20 21 22 23 21 21 20 19 19 18 19 19 18 17 15 14 13 12 11 10 9 8 8 7 7 7 6 5 5 5 5 6 5 4 5 6 6 6 6 6 6 6 6 5 4 4 4 5 5 6
3 3 4 4 3 2 2 2 2 3 5 6 7 6 5 5 4 4 3 3 7 8 7 7 6 1 4 9 11 20 27 29 27 26 24 22 21 20 20 20 20 21 20 20 22 21 20 20 20 21 22 22 21 19 19 19 18 19 18 17 16 15 14 12 12 10 9 9 8 7 7 6 6 5 5 4 4 4 5 4 3 4 5 5 5 5 5 5 5 5 4 4 3 3 4 5 5
3 4 4 3 3 1 2 1 1 2 5 6 7 6 5 6 5 4 5 4 7 10 7 6 6 0 1 8 18 27 30 30 28 27 25 23 21 20 20 19 20 21 20 20 20 21 20 20 20 19 20 21 21 19 19 19 19 18 17 16 15 14 13 12 11 10 9 8 7 7 6 6 5 5 5 4 4 3 4 3 3 3 3 4 4 4 4 4 4 4 3 3 2 2 4 4 4
5 4 4 4 2 1 3 4 4 3 5 5 3 5 4 5 7 6 6 7 8 10 8 7 7 3 5 14 24 28 29 30 29 28 26 23 21 20 20 20 20 20 21 21 20 20 20 20 20 19 20 20 20 20 19 19 19 18 17 16 14 13 13 11 10 9 9 8 7 7 6 5 5 5 4 4 4 3 2 2 2 2 3 3 3 3 4 4 4 4 4 3 2 2 3 3 4
6 4 4 4 0 3 3 3 5 4 5 5 1 4 5 4 8 7 7 7 9 10 9 9 9 9 11 18 26 28 29 29 28 28 27 25 23 22 21 21 20 20 21 21 21 21 20 20 20 20 20 20 19 19 18 18 19 18 16 15 14 13 12 11 10 10 9 8 8 7 6 5 5 4 4 4 3 3 2 1 1 2 2 2 3 4 4 4 4 5 5 4 4 3 3 3 3
7 5 5 3 1 1 2 1 2 4 5 6 3 1 4 3 6 7 6 6 9 9 8 11 11 12 14 19 24 27 29 28 28 28 26 25 24 23 22 22 22 21 21 21 21 21 20 20 21 20 19 20 19 17 17 18 18 18 16 15 14 13 12 11 11 10 9 8 8 7 6 5 5 4 4 3 2 2 1 0 1 2 2 3 4 4 4 4 5 5 6 5 4 3 3 3 4
6 6 7 1 1 2 2 1 1 3 5 7 5 1 3 3 4 6 5 4 6 7 9 11 13 16 18 20 23 26 27 27 28 27 26 25 24 23 22 22 23 21 20 20 20 21 21 20 21 20 20 20 19 17 17 17 17 17 15 15 13 13 12 11 11 10 9 9 8 7 6 6 5 5 4 3 3 3 2 1 1 2 1 2 3 3 2 4 4 4 4 4 3 3 4 4 5
5 8 9 5 3 3 2 1 1 3 5 6 4 2 1 4 6 8 8 6 2 2 8 11 13 17 20 21 22 23 24 25 27 27 27 27 25 24 22 22 22 21 20 20 20 21 21 20 20 20 20 20 19 18 17 16 17 16 15 14 13 13 12 11 10 10 9 9 8 7 6 6 5 5 4 4 3 3 2 2 2 2 1 1 2 2 2 3 3 3 3 3 3 3 4 4 5
7 8 9 8 8 7 2 3 4 4 7 6 4 3 2 5 7 8 10 9 1 3 5 10 13 17 20 22 22 22 23 23 25 27 28 28 27 25 24 24 24 23 22 21 21 21 22 21 21 20 20 20 20 18 16 16 16 15 15 14 14 13 12 11 10 10 9 9 9 7 7 6 6 5 5 4 3 3 3 2 2 1 1 1 1 2 3 3 3 3 3 4 4 4 4 4 4
10 9 9 8 8 9 7 7 7 8 8 8 6 6 6 8 8 7 9 11 6 1 6 11 14 18 20 21 21 21 22 22 24 26 27 26 26 25 25 24 24 24 23 22 21 21 22 22 22 21 20 20 20 19 17 16 16 15 14 14 13 12 12 11 10 10 9 9 9 8 7 6 6 5 5 4 4 3 3 2 2 1 1 0 1 2 3 3 3 3 3 4 4 4 4 4 4
13 12 8 7 7 8 8 9 10 10 9 8 8 10 10 9 8 8 9 11 9 6 9 13 16 18 19 20 21 20 20 21 23 24 25 24 25 24 23 23 24 24 24 24 22 21 22 23 23 22 21 21 20 19 18 16 16 15 14 14 13 13 12 11 10 10 9 9 9 9 7 6 6 5 5 5 4 4 3 3 2 2 1 0 1 2 3 3 3 3 3 4 4 4 5 4 5
11 14 10 8 9 8 9 10 11 10 8 7 9 12 11 9 9 10 10 11 10 10 13 15 18 19 18 19 20 20 20 21 23 24 24 24 25 25 24 23 24 24 24 24 23 23 22 22 23 23 22 22 20 19 18 17 16 15 15 14 13 13 12 11 10 10 10 9 9 9 9 7 6 5 5 5 4 4 3 3 3 2 2 1 1 2 2 3 3 3 3 4 4 4 5 5 4
5 10 11 11 11 10 10 12 12 10 8 9 11 12 10 7 8 8 8 11 12 13 15 16 17 18 18 18 19 19 19 22 23 23 23 23 25 26 26 24 24 24 24 25 24 23 23 23 23 23 22 21 21 20 19 17 16 16 15 14 14 13 13 11 11 10 10 9 9 10 10 8 7 5 5 5 4 4 4 4 3 3 2 1 1 1 2 2 2 3 3 4 4 5 5 5 4
5 7 9 12 12 11 12 13 12 9 8 9 11 12 11 7 9 9 6 12 16 16 17 18 17 16 17 18 18 16 17 21 23 23 23 23 24 25 26 25 25 24 24 25 24 23 23 24 23 23 22 22 21 20 19 18 17 16 16 15 14 13 13 12 11 11 10 9 9 9 9 9 7 6 5 5 5 4 4 4 3 3 2 2 2 2 2 2 2 2 2 2 4 5 5 5 4
8 8 10 12 11 12 13 14 12 10 8 7 8 11 11 10 13 12 8 14 17 17 17 18 17 16 16 17 16 15 16 20 22 22 23 24 23 24 26 25 25 24 24 24 24 23 24 24 23 23 22 22 21 20 19 18 17 16 16 15 14 13 13 12 11 11 10 10 9 9 9 8 8 7 6 6 5 5 5 5 4 3 3 2 3 2 2 2 2 2 1 2 3 4 5 4 3
9 10 10 10 9 11 13 13 12 11 8 6 7 8 8 12 14 11 11 16 17 17 17 17 16 16 16 16 15 15 17 19 21 22 24 24 23 24 25 25 24 23 22 23 25 24 24 24 24 23 23 22 21 20 18 17 17 16 15 14 14 14 13 12 11 11 10 10 10 10 10 9 9 8 7 7 6 6 6 6 5 4 3 3 3 2 2 1 1 2 2 3 4 4 4 3 2
9 10 9 8 8 8 9 8 9 10 7 7 9 7 6 7 10 10 12 16 17 16 17 17 16 16 15 16 15 16 17 19 22 24 24 25 23 23 24 24 24 23 21 23 25 24 23 23 24 24 24 24 22 21 19 17 16 15 15 14 14 13 12 12 11 11 10 10 10 10 11 11 10 10 8 7 6 7 7 6 5 4 3 3 2 2 2 2 2 1 2 4 4 4 4 2 1
8 8 8 9 9 8 8 8 9 10 7 9 10 8 8 4 9 11 11 14 16 15 16 17 17 17 17 16 16 15 16 19 23 25 25 25 24 22 24 25 25 24 22 22 24 24 23 23 23 23 24 25 23 22 21 18 17 16 15 14 13 13 13 12 12 11 11 11 11 10 12 12 11 11 9 8 8 7 7 7 5 4 4 3 3 2 3 3 2 1 2 4 4 4 3 1 2
8 8 9 10 11 10 8 8 9 10 7 10 11 9 8 3 9 10 11 12 14 13 14 17 17 17 17 15 15 15 15 18 20 23 25 25 24 22 23 24 25 25 23 22 24 25 24 23 23 22 23 25 24 23 22 20 18 17 16 15 15 14 14 13 12 12 11 11 11 11 11 12 12 11 10 10 9 8 8 7 6 5 4 4 3 3 3 3 2 1 1 3 4 3 2 1 2
8 9 9 10 10 10 8 7 7 9 8 10 12 11 11 4 5 9 10 11 13 12 13 16 15 15 15 14 15 15 16 17 17 21 26 26 24 23 22 23 25 24 23 23 24 25 24 24 23 22 22 24 24 23 22 21 19 18 17 16 16 16 15 14 13 13 12 12 12 12 11 12 12 12 11 11 10 9 9 8 7 5 5 4 4 5 4 3 2 2 1 2 3 2 1 1 2
10 10 9 10 10 9 10 7 6 8 9 10 11 11 12 10 5 8 9 10 12 12 12 14 15 15 15 14 15 15 16 17 18 22 27 27 25 24 23 23 24 24 23 23 24 24 24 23 23 22 21 23 23 22 22 21 19 18 18 17 17 16 16 15 14 13 13 13 13 12 12 12 11 11 11 11 11 10 10 9 8 7 6 5 5 5 4 3 3 2 2 2 2 1 0 1 2
12 12 10 11 11 10 13 9 5 5 8 10 12 12 11 11 7 7 9 10 11 11 11 12 14 15 15 14 14 15 17 17 18 24 27 27 26 25 23 23 24 24 23 23 24 24 24 23 22 22 22 23 23 22 22 22 21 20 19 19 18 18 17 16 14 14 13 13 13 12 12 12 12 11 11 11 11 11 10 9 8 7 7 6 6 6 4 4 4 3 2 2 1 1 2 1 1
10 12 10 12 12 10 12 10 5 4 8 10 12 13 12 10 8 6 8 10 11 12 12 13 14 14 15 16 16 16 16 15 18 23 26 27 26 25 24 23 24 25 24 24 25 25 25 24 23 23 23 23 24 24 24 23 22 21 21 20 19 18 17 16 15 14 14 13 13 12 12 12 12 12 12 11 11 11 10 9 8 8 8 7 7 6 4 4 4 3 2 1 0 2 2 1 1
10 10 10 11 13 11 12 9 6 5 7 10 11 12 13 12 11 9 9 12 12 12 14 14 16 16 15 17 18 17 14 13 16 20 24 27 26 26 25 23 24 26 25 26 26 26 26 25 25 24 24 24 25 25 24 23 22 21 20 19 18 17 17 16 15 14 14 13 13 13 13 12 12 12 12 12 12 11 11 10 9 8 8 7 7 6 5 5 5 4 3 1 1 1 1 1 1
11 10 9 10 11 11 12 10 7 6 6 8 11 13 14 13 13 11 10 12 12 13 15 15 16 17 15 16 17 16 15 14 17 19 22 26 27 27 26 24 25 26 26 26 26 26 26 26 26 25 24 25 25 25 24 22 21 20 18 18 17 15 15 16 15 14 14 13 13 14 15 14 14 13 13 13 13 12 11 11 10 9 8 7 7 7 6 6 5 4 4 2 1 2 1 1 2
12 11 10 11 11 10 10 9 9 9 8 9 12 11 12 12 12 12 11 13 12 13 16 15 15 16 16 16 15 16 17 17 17 19 20 23 26 27 26 25 25 26 26 26 27 27 26 26 26 25 25 25 25 25 25 22 20 19 17 15 15 14 12 14 14 13 14 14 14 15 16 16 15 14 14 14 14 13 12 11 10 9 8 8 8 7 6 6 5 5 4 2 2 2 2 3 3
14 15 14 12 12 13 10 6 6 6 8 10 11 10 11 12 14 14 12 13 13 13 14 15 14 14 15 15 15 16 18 18 18 19 19 21 23 26 26 25 25 26 26 27 28 27 26 26 27 26 26 26 25 26 25 22 21 20 18 15 14 14 13 14 15 15 15 16 16 15 16 16 16 15 15 15 15 14 13 12 11 9 9 9 9 8 6 5 5 5 4 3 3 2 2 3 3
13 17 18 16 13 13 12 8 6 6 8 10 10 10 10 12 16 15 10 11 13 12 13 15 14 14 14 14 15 16 17 17 18 19 19 20 22 25 27 26 26 27 27 27 27 27 26 26 27 27 26 26 25 26 26 23 22 22 20 18 18 17 17 17 17 17 16 17 16 15 15 16 17 16 16 16 15 15 14 13 12 11 10 10 9 8 6 5 5 5 4 3 4 3 3 3 3
11 12 16 18 16 14 12 11 9 8 9 7 7 8 9 10 13 12 8 10 13 12 13 14 14 13 14 14 14 16 17 17 17 18 19 20 22 24 26 28 29 28 27 27 26 27 27 26 27 28 26 25 25 26 27 25 23 22 22 21 21 19 18 18 17 17 16 16 15 15 15 15 17 17 16 16 17 16 15 14 13 12 12 10 9 9 7 6 6 5 5 4 4 5 5 4 4
10 9 10 15 18 17 14 11 10 9 10 8 8 9 9 10 11 10 9 11 12 13 13 14 14 15 15 15 15 16 17 17 17 17 19 20 22 25 27 29 30 28 27 27 26 27 28 27 28 28 27 26 26 27 28 26 23 23 23 23 21 20 19 17 16 17 16 15 15 16 16 15 16 18 18 17 17 17 16 15 14 13 13 11 10 9 8 6 6 6 6 5 4 6 6 5 5
11 7 6 10 14 16 15 12 10 9 10 11 11 12 10 11 12 11 12 14 13 14 15 15 15 16 16 16 17 18 18 18 18 19 20 21 23 26 29 29 29 28 27 28 27 27 27 28 27 28 29 27 26 26 28 27 25 23 23 23 21 20 18 16 15 16 16 16 16 16 16 15 15 17 19 18 18 18 18 16 15 15 14 12 11 10 8 7 7 7 7 6 6 7 7 6 6
12 8 5 8 10 12 13 11 10 10 11 13 13 14 11 11 12 11 12 14 14 13 13 14 16 17 16 17 17 18 17 17 18 19 20 21 25 27 28 28 28 29 28 28 27 26 26 27 28 30 30 27 25 26 27 27 26 24 23 23 22 20 19 17 16 16 17 17 17 17 17 16 16 16 18 19 18 18 18 17 16 15 14 13 12 11 9 9 9 9 9 8 8 8 8 8 7
13 9 8 8 8 9 9 9 8 9 12 14 16 16 13 12 12 11 11 12 12 13 12 13 16 17 17 17 16 17 17 16 17 18 19 21 25 27 27 27 28 28 28 28 28 27 27 27 29 31 30 26 25 26 27 28 28 26 24 24 24 22 20 19 18 18 18 18 18 18 17 17 17 17 17 18 19 19 18 18 17 16 15 14 13 13 11 10 10 9 9 9 9 10 10 9 8
13 9 9 8 7 7 7 7 8 10 11 11 15 18 16 14 12 9 11 14 15 14 13 13 15 17 18 16 16 16 17 17 17 17 18 19 22 24 26 27 28 28 28 29 29 29 28 27 28 29 29 27 26 26 28 30 29 26 26 25 24 24 23 22 21 20 19 19 19 18 17 17 18 18 18 17 18 19 19 18 18 17 15 14 14 13 12 11 10 10 10 10 10 11 11 10 9
13 10 10 9 7 7 7 8 9 11 10 8 11 15 16 15 13 10 11 13 14 14 13 13 14 16 17 17 16 15 15 17 17 17 17 17 18 20 23 27 28 29 30 31 30 30 29 28 29 30 30 29 28 29 31 30 29 28 27 26 24 25 25 24 23 22 21 20 19 19 19 19 19 19 20 19 19 19 19 19 18 18 17 15 14 13 12 12 11 11 11 11 11 12 13 12 11
14 11 10 10 8 8 9 9 9 9 10 9 9 10 11 13 12 14 17 15 12 11 11 11 12 13 15 17 17 15 16 17 16 16 17 17 18 19 22 27 29 30 31 32 31 31 29 29 31 31 31 31 31 31 30 29 30 30 28 26 25 25 25 25 25 24 23 22 21 21 21 20 20 20 21 21 20 19 19 19 19 19 18 16 15 13 13 13 13 12 12 12 13 13 14 13 12
14 12 10 10 9 8 7 7 9 9 8 10 11 8 9 8 3 5 14 16 15 13 12 12 12 12 13 15 16 15 16 17 16 17 18 19 20 20 23 27 29 30 32 32 31 31 30 30 32 32 32 33 33 31 30 30 31 30 28 28 27 25 25 25 25 24 23 23 22 22 22 21 21 20 21 21 21 20 19 19 19 19 18 18 17 15 14 14 14 14 14 13 13 13 14 14 13
12 12 11 11 10 8 6 5 6 6 6 8 10 8 6 4 1 1 3 8 13 14 14 14 14 14 14 14 15 15 15 16 17 17 19 20 21 21 23 27 28 30 31 32 32 32 32 31 31 33 33 33 34 33 32 31 31 30 29 30 30 26 24 24 25 24 24 24 23 22 22 22 22 20 20 21 20 20 20 20 19 20 19 19 18 17 16 15 15 16 15 14 14 14 15 15 14
9 12 13 12 11 10 8 6 5 5 7 7 8 10 8 6 7 8 9 9 11 12 13 13 13 14 14 13 13 15 15 16 17 18 19 20 20 21 24 27 28 29 31 33 34 34 34 32 31 33 32 32 33 34 34 32 31 30 30 31 30 28 26 26 25 25 25 24 23 23 22 22 22 22 21 20 20 21 21 21 20 20 19 20 19 19 18 16 16 17 17 16 16 15 16 16 15
8 11 13 11 11 11 8 7 6 7 9 7 9 13 11 8 7 8 14 16 15 15 15 14 13 13 14 14 14 15 16 16 18 19 18 19 19 21 24 28 30 31 32 34 36 35 34 33 32 33 33 34 34 35 34 33 32 31 30 31 30 29 29 28 26 25 24 23 23 23 23 23 23 23 21 20 21 21 22 22 21 20 20 20 20 19 19 18 17 17 18 18 17 16 16 17 16
12 9 11 11 10 10 8 7 8 9 9 8 11 14 11 9 7 5 10 15 16 16 16 15 16 15 14 14 15 16 16 15 16 17 16 17 19 21 24 29 32 33 34 34 35 34 33 33 33 33 35 35 34 33 33 34 33 32 31 31 32 31 30 29 26 24 24 24 25 24 24 24 23 23 23 22 22 22 22 22 22 22 20 21 21 20 20 19 19 18 19 18 17 17 18 17 16
15 10 11 11 8 8 9 8 7 8 8 7 10 11 9 8 10 9 9 9 10 13 13 14 16 16 15 15 15 15 15 14 14 15 16 18 20 22 26 30 31 32 32 31 32 33 33 34 33 33 33 33 33 32 32 33 34 33 32 32 32 32 31 29 26 26 25 26 27 26 25 25 24 23 23 24 24 23 23 23 23 23 22 21 22 21 21 21 20 19 19 19 19 19 19 18 17
14 12 12 12 9 6 7 9 8 8 8 7 7 8 5 2 5 11 12 10 9 10 10 11 13 15 15 15 15 14 14 14 15 15 17 19 19 21 26 28 28 28 28 28 29 31 32 32 33 34 33 33 34 34 33 34 34 34 33 33 33 33 33 30 28 28 28 27 27 27 26 25 24 24 24 24 25 25 24 24 23 23 23 22 22 22 22 22 21 21 21 21 20 20 20 19 18
15 12 12 12 11 8 8 9 10 9 8 7 7 7 3 3 3 5 8 9 10 11 12 11 11 12 13 13 13 13 13 14 15 15 15 16 16 18 21 24 25 26 28 29 30 30 31 32 33 34 34 34 35 35 35 34 34 34 34 35 34 33 33 32 31 30 30 29 28 28 28 26 25 25 26 25 25 25 25 25 24 23 23 23 23 23 22 22 22 22 22 22 21 21 21 19 18
Wind_Direction
144 166 170 175 181 182 181 194 245 187 233 229 95 94 99 82 106 120 122 127 119 130 113 119 127 114 77 78 101 89 49 31 31 74 98 129 142 139 140 139 140 140 141 143 145 149 147 146 147 149 148 142 140 140 139 136 135 134 131 131 135 138 139 134 127 125 123 121 118 115 112 110 107 104 101 97 94 92 91 90 89 88 87 86 84 84 84 83 82 81 80 81 82 81 83 85 86
160 172 174 178 184 193 178 198 251 165 227 103 72 64 103 120 131 109 116 124 107 130 137 125 120 99 91 100 108 96 64 41 63 87 103 130 136 138 144 142 142 141 141 143 146 150 149 150 149 151 150 145 141 140 139 137 137 135 131 135 141 141 137 131 127 127 124 122 119 116 114 111 108 104 100 96 92 90 89 88 88 86 85 84 83 83 82 81 79 79 77 77 78 78 79 83 87
169 173 174 175 189 211 237 215 257 131 175 71 72 68 108 115 94 91 103 103 109 134 135 125 117 95 129 138 100 67 82 71 98 104 117 135 136 143 147 143 143 142 141 143 146 150 152 154 152 151 151 148 144 143 142 139 136 132 133 138 141 137 134 132 130 129 127 124 121 119 116 112 108 104 99 95 91 90 87 86 85 84 84 82 81 81 79 78 75 74 73 73 74 74 74 76 82
169 177 179 181 207 220 246 233 282 321 82 67 76 78 78 85 88 95 102 109 123 138 137 134 119 64 80 122 88 71 96 98 112 118 132 141 141 145 147 143 141 141 142 143 146 148 152 155 152 151 153 152 147 145 144 140 136 134 138 140 138 135 135 135 133 132 129 126 124 121 115 111 107 103 98 94 91 89 86 85 83 83 83 81 80 80 78 76 73 72 71 71 71 72 71 71 74
168 182 196 212 245 249 274 260 278 324 46 49 79 83 78 92 100 106 111 123 138 142 145 148 121 90 70 71 50 89 101 108 123 130 136 138 140 144 145 145 143 142 142 143 146 145 151 155 152 153 157 155 151 146 144 141 138 138 142 143 141 139 139 138 136 134 130 128 126 120 115 110 105 101 98 93 91 88 86 84 81 80 80 80 80 78 76 73 72 71 70 70 71 72 72 70 70
169 189 211 232 268 322 276 264 258 53 53 19 71 89 88 101 109 114 120 130 140 140 145 150 125 122 96 64 51 77 99 123 134 138 138 138 143 146 145 146 146 144 143 144 147 145 152 158 156 156 158 156 153 148 145 142 141 144 146 147 144 142 142 141 139 136 133 131 126 121 115 110 105 100 97 93 91 88 85 82 80 78 77 78 77 75 72 71 71 68 67 68 70 72 72 71 70
178 194 210 234 247 237 265 340 52 64 71 8 57 91 100 112 120 126 132 136 140 141 148 146 134 128 106 109 91 75 95 129 136 138 140 142 145 146 146 147 146 144 143 143 144 147 155 159 158 158 158 155 152 149 149 146 145 149 150 149 146 145 146 145 142 139 136 132 127 122 116 110 106 101 97 93 91 89 85 82 78 76 75 74 73 72 71 71 70 67 67 66 68 70 71 71 72
196 210 239 254 242 218 268 31 68 53 82 50 56 82 104 123 134 137 140 142 149 153 159 156 159 135 104 140 111 91 116 130 132 134 140 144 146 148 148 148 145 145 143 141 142 149 155 156 156 158 158 157 154 151 152 150 149 153 154 152 149 149 150 148 145 142 138 133 128 121 116 111 107 102 97 93 91 89 84 81 77 76 74 73 71 70 70 70 68 66 65 64 66 67 68 69 69
208 231 274 274 272 242 241 82 94 72 90 103 84 89 114 134 140 141 142 138 146 157 158 160 175 145 117 126 101 113 129 125 128 134 142 147 149 150 149 150 147 147 144 140 141 147 151 151 153 155 157 157 154 151 152 153 153 155 156 153 152 153 153 150 146 143 138 133 128 122 118 113 109 104 98 94 91 88 84 82 78 77 74 73 71 69 69 67 65 63 62 62 62 63 66 67 63
209 232 285 279 269 262 136 88 98 101 92 99 99 112 131 139 145 141 137 129 138 150 146 156 172 141 132 120 101 124 135 131 135 138 145 149 151 151 149 151 149 148 146 142 142 145 148 148 150 153 154 155 154 152 153 156 157 158 157 155 155 156 154 151 147 143 138 134 129 124 120 115 111 107 102 96 91 88 85 83 80 76 74 71 69 67 66 63 61 59 59 59 59 60 62 63 60
229 210 264 273 261 360 77 75 95 101 97 106 106 121 135 138 149 138 126 126 139 141 140 163 159 139 136 121 100 125 139 143 145 145 149 151 152 152 151 151 151 150 148 144 144 145 147 147 148 150 153 154 154 154 155 159 159 159 157 157 158 157 155 153 149 142 140 136 131 126 122 118 114 112 106 98 92 90 85 84 81 76 72 69 66 64 63 60 56 55 54 54 55 58 60 60 60
256 232 245 276 298 43 48 60 82 92 106 120 116 124 135 142 145 134 133 129 143 144 152 176 149 145 144 129 123 135 149 153 150 150 150 153 154 153 153 152 153 153 149 146 145 146 149 151 151 152 153 154 156 157 158 161 161 159 159 160 160 159 158 154 150 145 142 138 134 130 126 121 116 115 109 102 97 92 87 86 80 72 70 64 62 61 59 56 52 51 50 51 53 54 57 59 60
247 281 275 284 323 20 3 70 96 112 114 105 113 125 138 148 138 127 133 131 151 155 156 164 143 158 141 116 132 144 158 156 152 154 152 154 156 155 155 154 155 154 151 148 146 148 150 153 154 155 157 158 159 160 161 162 162 161 161 162 162 161 160 156 152 148 145 140 137 134 130 124 119 116 111 107 100 95 93 89 81 69 64 62 60 57 55 53 50 47 46 49 51 52 54 57 56
235 294 291 289 304 274 271 111 123 126 105 96 108 126 150 148 118 119 130 137 142 131 130 139 153 163 130 122 143 154 162 155 153 157 155 155 155 156 155 155 157 156 154 151 149 150 153 155 156 158 160 161 161 162 163 163 163 163 164 164 164 163 161 159 155 152 148 144 141 136 134 128 120 116 113 112 106 101 93 84 84 72 59 57 57 54 52 52 50 47 47 47 49 51 53 56 53
235 288 276 280 280 225 189 114 103 101 96 102 114 127 151 123 122 138 137 134 110 103 118 140 171 166 146 159 161 160 160 155 156 158 156 155 154 157 156 157 158 159 159 157 154 153 156 157 157 161 162 164 163 164 165 166 167 167 168 166 166 165 163 163 159 156 152 148 145 141 141 135 127 122 120 120 115 107 92 77 78 74 59 51 50 51 52 50 49 48 48 50 51 50 50 55 50
232 277 262 266 263 205 150 161 114 106 90 101 120 136 150 122 154 150 101 108 110 136 146 147 175 163 160 169 150 154 157 155 158 159 156 155 155 157 157 159 160 162 164 161 157 155 160 160 160 165 165 167 166 166 167 168 171 171 170 169 168 167 167 166 163 161 157 155 152 150 150 142 138 136 134 134 125 112 107 103 85 70 58 51 44 43 51 49 47 45 45 53 55 50 45 45 37
216 253 255 249 240 191 120 146 71 69 73 99 133 156 165 135 157 130 113 147 134 158 166 138 158 114 116 138 138 149 153 154 158 159 158 158 158 160 161 162 163 166 168 167 162 158 163 164 164 168 169 169 168 168 168 169 173 173 172 172 171 170 170 169 168 167 162 162 161 158 157 153 157 158 148 147 140 122 119 120 92 68 63 56 40 39 48 45 44 43 45 53 59 52 40 31 18
212 233 246 245 228 73 60 53 42 31 48 70 139 182 194 153 161 152 157 175 149 162 165 140 147 119 94 122 137 147 152 156 160 161 161 163 164 164 166 166 168 170 171 172 170 165 165 167 169 169 170 172 171 169 168 170 173 174 173 174 174 175 175 172 170 170 168 168 168 167 167 169 170 165 155 151 150 138 126 127 110 75 72 58 43 49 45 42 45 45 48 53 49 42 40 28 4
218 234 245 247 68 72 67 45 42 20 18 22 18 203 224 180 164 171 183 176 158 168 165 157 153 130 120 130 142 149 154 160 163 166 165 167 169 168 169 170 172 173 173 175 174 173 170 169 171 171 172 173 172 170 170 171 173 174 175 175 176 178 178 177 176 176 176 174 174 176 176 179 173 170 173 163 158 158 146 140 120 75 67 46 50 44 27 38 44 43 46 53 48 27 29 25 356
220 236 245 245 55 110 130 307 6 10 357 351 359 189 232 197 158 181 201 179 174 187 172 169 166 148 141 142 148 153 158 164 167 170 170 171 172 171 171 172 175 176 175 176 175 177 176 175 174 173 173 173 173 172 173 173 172 176 177 177 178 180 182 183 185 183 183 182 181 183 181 181 177 181 189 180 174 174 169 99 49 56 52 24 45 42 22 30 36 38 36 45 49 18 7 7 360
211 222 245 283 50 219 154 187 329 4 348 349 2 34 225 193 175 204 216 198 195 208 191 181 172 157 152 151 155 159 163 168 171 174 173 174 175 175 175 174 177 177 177 178 177 179 181 181 179 175 174 176 178 175 176 176 175 178 180 181 182 183 186 188 189 188 188 188 186 187 184 183 185 189 190 190 189 179 170 157 108 85 86 31 44 48 35 28 30 40 28 32 35 16 6 360 359
228 223 247 264 266 248 120 126 304 342 326 338 344 313 220 178 202 221 220 216 199 192 192 184 172 160 157 157 160 164 167 171 175 178 177 178 178 176 176 176 178 178 180 182 180 181 182 184 183 180 177 179 181 180 179 180 180 182 183 183 185 187 189 190 191 191 191 190 190 191 189 188 191 194 191 193 195 187 185 175 158 129 114 70 42 29 33 22 19 33 24 23 11 7 5 356 359
238 231 237 242 251 258 252 250 263 296 301 312 319 316 254 206 220 224 219 223 245 45 169 170 163 160 158 159 163 169 172 174 178 180 180 180 180 179 177 177 179 178 181 185 183 182 182 184 185 184 183 181 183 184 183 183 185 187 186 185 188 190 190 192 194 193 192 191 193 194 194 194 194 196 193 194 200 198 200 191 166 142 122 84 41 10 16 12 8 18 17 16 4 358 358 351 352
232 246 240 234 243 251 255 259 263 274 281 286 290 285 254 234 238 225 213 221 228 107 151 153 151 156 159 162 167 172 174 176 180 181 182 182 182 182 180 180 180 179 182 186 184 183 184 185 185 185 186 185 186 186 186 186 188 190 189 188 191 192 192 196 196 194 193 193 196 197 198 200 198 196 192 193 198 200 207 203 182 170 171 79 31 6 9 8 5 14 13 9 1 351 347 342 339
224 244 249 244 246 250 255 257 261 267 270 273 265 263 256 243 249 243 219 212 206 170 149 146 149 156 163 166 170 172 174 178 180 181 184 184 184 184 183 182 182 181 183 185 185 185 186 186 186 186 187 187 187 188 189 189 189 192 192 191 193 193 196 199 198 195 194 195 198 199 201 204 203 199 193 193 194 198 208 206 197 199 209 280 356 2 9 2 358 13 12 1 358 348 339 334 332
218 236 249 253 254 256 260 260 261 263 260 260 254 257 259 244 245 249 230 209 189 163 152 148 153 161 166 170 172 173 175 178 180 182 184 185 186 187 187 186 185 186 185 185 186 186 186 187 187 188 188 188 188 190 192 191 190 193 194 194 194 194 199 200 199 199 197 197 199 201 203 204 207 203 196 195 197 202 209 210 203 208 221 248 326 353 3 356 354 6 7 354 351 342 332 331 334
203 233 249 253 260 262 261 262 260 263 260 251 251 260 266 245 228 237 222 193 174 161 157 155 160 166 169 172 173 175 178 180 181 181 183 186 187 189 190 189 189 188 187 186 186 187 187 187 189 189 189 188 189 192 193 193 193 194 195 196 196 196 200 200 201 203 200 200 200 202 204 205 209 209 202 198 202 209 212 214 210 218 236 260 296 326 339 347 350 354 359 347 340 334 328 333 342
231 244 260 253 255 255 252 257 254 254 254 244 246 259 265 243 218 229 206 168 168 168 164 162 166 169 171 174 174 176 179 180 181 181 184 187 188 190 191 190 190 189 188 188 187 186 186 188 189 189 189 189 191 193 193 194 195 195 197 197 199 199 199 201 203 205 203 203 203 203 205 206 210 213 210 204 208 214 215 214 214 229 252 275 292 310 317 326 334 338 353 330 324 325 326 336 341
241 247 266 259 255 252 243 245 245 240 241 234 240 255 252 226 218 224 192 163 171 175 170 168 170 169 171 174 174 177 179 179 182 186 187 187 189 191 191 190 189 189 189 189 187 186 186 187 188 190 191 191 193 194 193 194 196 195 197 198 200 199 200 203 204 206 206 205 205 203 205 208 211 213 212 210 213 218 219 219 219 235 256 275 295 303 299 299 320 322 328 315 313 318 323 333 333
233 234 254 264 259 250 235 232 234 233 233 220 230 253 243 214 209 207 176 170 179 180 176 173 172 170 171 175 175 178 179 180 184 187 187 187 189 191 191 190 189 189 187 187 188 186 185 185 187 190 191 192 194 196 194 195 196 196 199 199 200 200 201 203 204 206 206 206 205 203 205 209 212 212 211 213 216 221 224 224 225 237 252 268 288 288 282 282 304 313 320 315 311 319 323 329 330
224 225 233 247 253 238 208 206 218 217 193 188 221 250 254 206 178 178 170 176 186 185 181 177 175 172 171 175 177 180 181 183 186 187 187 187 188 190 191 190 189 189 186 186 187 185 184 185 187 189 190 192 194 195 195 195 197 197 200 200 200 201 202 203 205 205 205 207 206 206 206 207 211 214 214 216 220 226 229 229 230 234 244 261 277 267 269 271 273 298 312 306 313 329 330 336 360
214 220 219 221 236 231 190 176 205 220 185 184 217 246 253 185 143 168 170 181 193 191 186 180 178 176 173 175 178 181 182 185 188 188 188 188 188 189 190 190 189 189 187 184 184 183 184 184 186 189 190 191 192 194 195 195 196 197 200 200 200 202 203 205 206 206 206 207 207 208 210 209 213 218 218 220 223 230 233 234 232 228 239 257 265 262 262 259 256 262 289 304 326 345 338 5 56
209 218 231 218 217 226 204 177 201 229 220 204 217 244 254 151 128 166 171 184 197 198 194 185 183 180 176 177 177 180 181 184 189 189 188 188 189 188 189 190 189 189 187 184 182 182 183 183 185 188 189 191 192 193 194 194 196 197 199 199 200 202 205 207 206 207 207 207 208 209 211 212 215 220 220 221 225 230 235 238 237 229 236 251 255 258 254 252 258 255 260 300 332 354 348 32 63
205 209 232 231 221 225 211 174 174 206 224 224 220 236 255 247 140 166 175 187 198 204 200 190 187 183 180 181 179 181 182 184 188 189 188 187 188 188 188 189 189 189 187 185 183 181 182 182 184 187 187 189 191 192 193 195 196 197 200 200 201 203 207 209 207 208 209 208 209 208 208 210 214 219 220 222 226 230 236 240 240 234 237 246 251 253 250 248 256 261 271 301 337 7 6 34 46
211 205 218 230 224 230 228 201 159 188 222 235 231 234 245 249 210 175 183 192 202 209 203 194 191 186 184 186 186 184 184 187 187 186 186 186 187 187 186 188 187 188 187 185 183 182 183 182 183 186 186 188 190 191 193 195 196 198 201 202 204 206 208 211 210 209 210 210 210 209 208 209 213 217 219 223 225 229 234 238 238 237 239 242 250 255 257 252 238 242 275 317 349 24 149 55 54
226 218 217 226 222 226 233 222 166 200 239 240 243 248 247 251 235 189 187 196 205 211 203 196 195 190 188 189 191 190 188 188 186 185 185 185 186 185 184 186 187 188 187 184 183 182 184 183 182 185 187 188 189 190 192 194 196 199 201 202 204 207 208 211 212 212 212 212 211 210 209 212 215 216 219 222 224 227 231 234 235 235 238 241 249 255 259 249 226 222 264 320 347 161 143 102 84
239 229 221 230 232 227 227 220 179 211 252 247 249 259 259 262 257 216 193 196 203 207 204 199 198 196 193 193 194 193 192 188 181 183 185 185 185 184 183 184 185 188 187 185 184 184 185 185 183 185 187 188 189 191 193 195 197 198 200 202 203 204 206 208 210 213 214 213 211 209 209 213 216 218 220 221 222 226 228 230 232 233 237 238 245 250 245 236 227 233 263 297 239 169 151 150 129
231 232 226 230 233 234 234 222 174 192 244 252 254 265 263 258 258 242 205 197 200 203 206 204 202 201 197 197 196 193 191 185 179 181 185 186 185 184 183 184 185 187 188 187 187 186 187 188 187 186 186 188 191 193 194 196 197 197 197 200 201 201 202 204 207 210 212 212 209 208 210 213 216 219 220 221 222 222 224 228 231 232 236 236 239 244 237 229 236 250 247 232 191 162 165 164 159
226 233 235 236 232 233 238 225 203 215 241 254 256 263 265 259 258 252 218 203 203 204 209 207 204 204 201 199 196 191 186 184 182 182 184 186 186 184 184 185 187 187 188 189 189 188 188 190 190 189 188 189 193 195 195 197 197 195 196 197 199 200 201 204 206 207 208 209 208 210 215 217 217 218 219 220 222 221 222 226 230 233 233 232 232 231 227 224 236 244 228 221 176 144 162 170 200
227 232 231 235 232 231 235 214 206 227 241 255 264 267 267 262 256 249 229 213 207 205 210 212 209 206 205 202 197 190 186 185 185 184 185 186 186 186 186 186 187 188 189 190 191 191 191 193 193 192 191 192 194 196 196 196 194 193 194 195 197 201 203 202 203 205 205 206 207 210 216 218 217 218 218 219 221 222 222 223 229 232 230 229 227 223 220 221 233 237 223 214 190 174 186 176 190
226 230 232 235 232 233 242 218 193 223 232 238 255 265 263 256 249 243 226 210 209 206 206 211 213 210 208 204 199 194 191 187 186 186 186 186 186 187 187 186 186 188 190 192 193 193 193 195 195 193 193 193 195 196 195 194 193 191 190 190 195 203 206 202 201 204 204 205 208 210 212 214 215 217 217 218 220 222 223 223 227 230 231 232 230 228 223 221 233 233 221 206 195 208 219 185 180
226 225 230 237 240 238 240 240 234 241 234 221 230 253 256 244 244 245 225 201 204 202 201 207 208 206 207 205 200 198 196 191 188 189 188 187 187 186 187 188 188 189 191 192 192 193 194 195 195 194 195 195 196 197 193 191 192 191 188 191 196 202 205 205 204 204 204 206 210 211 210 211 214 216 217 218 220 222 224 224 227 231 234 234 234 234 231 227 233 229 220 209 187 198 224 214 193
231 221 223 230 237 240 234 235 239 246 251 230 212 244 263 250 243 239 213 200 203 196 199 205 203 204 205 204 202 199 198 194 191 192 191 189 188 187 188 190 192 192 191 191 192 193 193 193 194 194 195 197 198 198 195 192 194 194 193 198 201 202 204 206 206 205 206 207 208 209 209 209 212 214 216 218 219 221 223 225 227 231 235 236 236 238 236 231 233 225 215 210 188 188 204 218 206
231 219 218 221 224 230 231 234 240 248 260 247 215 232 262 260 247 234 211 209 206 194 197 202 201 205 206 205 205 201 199 197 192 192 193 192 191 190 190 191 193 193 189 188 191 193 193 193 193 193 195 197 197 198 196 195 197 197 198 203 205 207 208 206 203 203 205 206 206 207 207 208 209 213 215 217 218 220 222 224 227 231 234 235 234 237 238 232 228 221 211 203 188 189 196 205 206
228 214 216 221 218 224 229 236 244 247 254 248 229 230 250 255 246 238 227 222 216 202 198 200 200 203 205 206 207 204 202 199 196 194 193 194 194 193 192 191 192 191 188 188 190 191 192 192 192 193 196 197 194 194 193 196 200 199 200 204 206 209 209 207 202 202 203 203 205 206 206 208 209 212 215 216 218 219 220 223 226 231 233 233 232 234 236 232 226 220 214 203 190 195 196 192 197
222 204 203 218 216 223 228 235 243 243 245 245 234 227 239 254 246 233 225 220 220 219 209 201 198 199 202 206 208 206 203 202 200 198 194 194 195 194 193 191 190 191 190 189 188 189 190 191 193 196 198 195 193 193 192 197 201 199 201 204 206 207 206 205 203 201 201 201 205 207 207 209 211 213 216 216 217 218 219 222 225 228 230 230 232 233 232 232 228 221 218 208 196 198 195 189 192
214 202 203 214 212 220 226 229 235 241 243 240 233 229 237 256 250 232 227 221 217 224 223 210 199 196 201 205 208 206 203 202 203 201 197 194 194 193 192 191 191 191 190 188 187 188 189 190 193 196 197 194 193 193 194 199 201 201 203 205 206 206 204 202 203 201 200 200 205 208 209 211 214 217 218 216 217 218 219 221 223 226 226 225 227 229 229 230 228 222 217 208 201 202 196 189 191
211 202 205 215 209 210 219 215 217 235 241 233 228 228 232 247 248 233 232 228 219 222 228 220 202 196 199 202 206 206 203 201 201 202 199 194 192 191 191 192 191 189 189 189 189 188 189 190 191 193 195 194 193 194 197 200 202 203 205 206 207 207 205 202 204 204 202 201 205 207 209 212 214 218 219 218 217 216 216 218 221 222 221 220 222 224 227 229 228 220 213 207 203 204 199 190 190
207 203 205 209 198 193 206 208 212 230 239 233 229 226 228 241 248 242 238 233 227 226 230 230 215 201 197 197 203 205 202 201 199 200 199 194 192 191 190 191 189 189 191 191 190 189 188 189 190 192 194 193 193 196 198 200 203 206 207 208 209 208 207 205 206 208 206 206 206 206 208 210 212 215 217 219 218 215 213 214 215 217 217 216 215 217 222 226 226 220 212 208 206 206 201 192 191
200 200 202 203 197 194 205 210 216 232 234 222 218 225 234 246 252 241 234 233 230 224 220 226 224 211 199 196 202 203 201 201 199 199 200 196 194 192 191 190 188 189 191 191 191 189 188 189 189 191 192 192 193 195 197 199 206 210 208 209 210 209 209 208 208 210 210 209 208 208 209 210 212 215 216 219 219 216 213 213 213 214 213 210 207 209 216 222 224 219 214 211 209 209 205 197 193
198 202 206 211 212 210 210 212 219 231 229 202 192 208 235 239 247 235 228 222 219 222 225 226 226 220 207 197 199 201 200 201 200 199 200 198 196 193 191 190 189 189 190 191 192 190 189 189 189 190 191 192 193 195 197 200 206 210 209 210 212 210 210 211 210 211 211 211 210 210 210 211 213 216 217 219 219 215 213 212 212 213 209 205 204 204 210 218 221 218 216 215 212 211 209 202 196
196 200 210 215 215 220 230 242 244 250 241 202 193 213 238 233 124 111 208 204 204 215 224 224 223 219 211 201 198 201 202 202 200 201 202 200 197 193 191 192 190 190 189 190 191 191 191 190 190 191 191 192 193 194 197 200 204 209 209 212 214 211 211 212 210 210 211 211 211 210 211 212 213 215 216 217 216 214 212 211 212 212 208 204 203 202 204 211 217 218 216 215 214 212 211 205 199
188 197 212 212 208 221 236 247 259 267 252 219 204 226 239 254 253 224 214 212 205 210 215 214 214 212 209 205 199 200 203 202 201 201 202 199 196 194 193 193 192 190 190 190 191 191 191 191 190 191 192 192 193 194 197 199 202 207 208 211 213 210 212 214 209 208 211 210 211 213 214 214 213 214 214 214 214 213 212 212 212 212 208 205 203 202 204 207 212 216 215 213 213 213 213 208 201
191 195 203 199 205 224 237 237 225 226 240 231 221 231 230 234 248 222 213 217 215 215 218 217 215 208 206 205 201 203 204 203 203 202 201 197 196 196 195 195 194 193 192 191 191 190 191 191 190 190 191 192 193 194 196 197 199 204 206 208 209 210 213 215 211 208 209 209 211 214 215 215 215 214 214 213 213 212 211 212 212 211 208 206 204 203 203 204 207 214 217 214 213 212 213 211 204
216 208 192 190 203 209 209 226 226 220 234 237 229 235 235 228 232 214 209 216 217 216 216 218 217 210 207 204 202 205 207 205 204 202 200 197 197 198 197 197 196 194 193 192 191 189 190 192 192 192 193 193 193 194 195 197 199 202 204 206 208 210 212 214 211 208 208 209 212 213 213 215 215 214 213 212 212 211 211 211 213 213 210 207 206 203 202 201 203 211 216 215 214 212 212 213 207
216 219 201 199 208 206 201 212 225 227 236 241 232 232 233 230 230 228 221 212 211 213 211 216 219 214 210 207 203 204 205 206 205 202 200 199 199 199 199 200 199 196 195 193 191 191 191 192 192 193 194 193 193 194 195 196 199 201 203 205 206 207 209 211 210 208 209 211 213 213 214 215 214 213 213 213 213 213 212 211 213 214 212 209 207 204 202 201 201 207 213 214 211 209 211 213 210
201 208 205 200 198 207 212 211 217 232 239 241 242 239 231 204 221 226 224 214 211 216 213 214 219 219 215 211 207 202 199 202 203 202 202 200 200 201 201 201 201 198 196 194 193 194 194 193 193 194 194 193 194 196 195 197 199 202 202 203 204 206 208 210 210 209 211 212 213 214 215 215 214 213 213 212 213 214 213 212 213 213 212 209 207 205 203 200 201 203 209 213 207 204 209 211 209
193 201 201 197 195 201 208 207 210 224 239 242 248 255 247 94 130 203 210 217 223 228 225 217 216 221 221 216 211 202 199 202 202 203 203 201 200 202 202 201 200 199 197 196 195 195 195 196 196 196 195 195 196 196 196 197 199 201 203 203 204 206 207 208 208 209 211 212 212 213 213 213 213 213 213 213 213 214 214 213 213 212 210 208 206 205 204 201 201 201 205 210 205 200 204 206 206